EN

Hourly Weather Almendralejo

Today, 22 January, Friday

Time Temperature Precipitation Wind Pressure Humidity
00:00 +12°C° 0.7 mm 8 mps 730 mmHg 91%
01:00 +12°C° 0.1 mm 8 mps 729 mmHg 91%
02:00 +11°C° 0.1 mm 8 mps 729 mmHg 91%
03:00 +11°C° 0.1 mm 9 mps 729 mmHg 91%
04:00 +11°C° 0.1 mm 9 mps 729 mmHg 88%
05:00 +9°C° 0.1 mm 10 mps 729 mmHg 86%
06:00 +9°C° 0.1 mm 10 mps 729 mmHg 83%
07:00 +8°C° 0 mm 9 mps 730 mmHg 83%
08:00 +8°C° 0 mm 9 mps 730 mmHg 83%
09:00 +7°C° 0 mm 8 mps 731 mmHg 82%
10:00 +8°C° 0.1 mm 9 mps 731 mmHg 78%
11:00 +9°C° 0.1 mm 10 mps 731 mmHg 73%
12:00 +11°C° 0.1 mm 11 mps 732 mmHg 68%
13:00 +11°C° 0.2 mm 11 mps 732 mmHg 68%
14:00 +9°C° 0.2 mm 10 mps 732 mmHg 68%
15:00 +10°C° 0.2 mm 9 mps 731 mmHg 67%
16:00 +9°C° 0 mm 8 mps 732 mmHg 73%
17:00 +8°C° 0 mm 6 mps 732 mmHg 78%
18:00 +7°C° 0 mm 5 mps 732 mmHg 83%
19:00 +7°C° 0 mm 5 mps 733 mmHg 86%
20:00 +6°C° 0 mm 4 mps 733 mmHg 89%
21:00 +6°C° 0 mm 4 mps 734 mmHg 92%
22:00 +5°C° 0 mm 4 mps 734 mmHg 92%
23:00 +5°C° 0 mm 4 mps 734 mmHg 92%

Tomorrow, 23 January, Saturday

Time Temperature Precipitation Wind Pressure Humidity
00:00 +5°C° 0 mm 4 mps 734 mmHg 92%
01:00 +5°C° 0 mm 4 mps 734 mmHg 92%
02:00 +5°C° 0 mm 4 mps 734 mmHg 92%
03:00 +5°C° 0 mm 5 mps 734 mmHg 91%
04:00 +5°C° 0 mm 5 mps 734 mmHg 92%
05:00 +5°C° 0 mm 5 mps 734 mmHg 93%
06:00 +5°C° 0 mm 5 mps 734 mmHg 94%
07:00 +6°C° 0 mm 5 mps 734 mmHg 91%
08:00 +7°C° 0 mm 5 mps 734 mmHg 88%
09:00 +7°C° 0 mm 5 mps 734 mmHg 85%
10:00 +8°C° 0 mm 6 mps 734 mmHg 84%
11:00 +9°C° 0 mm 7 mps 733 mmHg 83%
12:00 +10°C° 0 mm 7 mps 733 mmHg 82%
13:00 +10°C° 0.1 mm 8 mps 732 mmHg 82%
14:00 +10°C° 0.1 mm 8 mps 731 mmHg 83%
15:00 +10°C° 0.1 mm 8 mps 730 mmHg 84%
16:00 +10°C° 0.1 mm 8 mps 730 mmHg 86%
17:00 +10°C° 0.1 mm 9 mps 730 mmHg 87%
18:00 +10°C° 0.1 mm 9 mps 729 mmHg 88%
19:00 +11°C° 0.5 mm 9 mps 729 mmHg 90%
20:00 +11°C° 0.5 mm 9 mps 729 mmHg 91%
21:00 +12°C° 0.5 mm 9 mps 729 mmHg 93%
22:00 +12°C° 0.6 mm 9 mps 729 mmHg 92%
23:00 +12°C° 0.6 mm 9 mps 729 mmHg 92%

Day after tomorrow, 24 January, Sunday

Time Temperature Precipitation Wind Pressure Humidity
00:00 +12°C° 0.6 mm 9 mps 729 mmHg 92%
01:00 +11°C° 0.1 mm 8 mps 730 mmHg 92%
02:00 +10°C° 0.1 mm 7 mps 730 mmHg 91%
03:00 +9°C° 0.1 mm 6 mps 730 mmHg 91%
04:00 +8°C° 0 mm 5 mps 730 mmHg 92%
05:00 +8°C° 0 mm 5 mps 730 mmHg 94%
06:00 +7°C° 0 mm 4 mps 730 mmHg 95%
07:00 +7°C° 0 mm 4 mps 731 mmHg 94%
08:00 +7°C° 0 mm 4 mps 731 mmHg 93%
09:00 +8°C° 0 mm 4 mps 732 mmHg 91%
10:00 +10°C° 0 mm 4 mps 732 mmHg 87%
11:00 +10°C° 0 mm 5 mps 732 mmHg 82%
12:00 +12°C° 0 mm 5 mps 733 mmHg 77%
13:00 +12°C° 0 mm 4 mps 732 mmHg 75%
14:00 +12°C° 0 mm 4 mps 732 mmHg 73%
15:00 +12°C° 0 mm 4 mps 731 mmHg 71%
16:00 +11°C° 0 mm 3 mps 731 mmHg 75%
17:00 +10°C° 0 mm 3 mps 731 mmHg 79%
18:00 +9°C° 0 mm 2 mps 731 mmHg 83%
19:00 +9°C° 0 mm 2 mps 732 mmHg 85%
20:00 +9°C° 0 mm 2 mps 732 mmHg 87%
21:00 +9°C° 0 mm 1 mps 732 mmHg 89%
22:00 +9°C° 0 mm 1 mps 733 mmHg 90%
23:00 +9°C° 0 mm 1 mps 733 mmHg 90%

25 January, Monday

Time Temperature Precipitation Wind Pressure Humidity
00:00 +9°C° 0 mm 1 mps 733 mmHg 91%
01:00 +9°C° 0 mm 1 mps 733 mmHg 92%
02:00 +9°C° 0 mm 1 mps 733 mmHg 93%
03:00 +8°C° 0 mm 1 mps 733 mmHg 94%
04:00 +8°C° 0 mm 1 mps 733 mmHg 94%
05:00 +8°C° 0 mm 1 mps 733 mmHg 94%
06:00 +7°C° 0 mm 1 mps 732 mmHg 94%
07:00 +8°C° 0 mm 1 mps 733 mmHg 92%
08:00 +9°C° 0 mm 1 mps 733 mmHg 90%
09:00 +9°C° 0 mm 0 mps 734 mmHg 88%
10:00 +10°C° 0 mm 1 mps 734 mmHg 84%
11:00 +11°C° 0 mm 1 mps 734 mmHg 81%
12:00 +12°C° 0 mm 2 mps 734 mmHg 77%
13:00 +13°C° 0 mm 2 mps 734 mmHg 77%
14:00 +14°C° 0 mm 2 mps 734 mmHg 77%
15:00 +14°C° 0 mm 1 mps 734 mmHg 76%
16:00 +14°C° 0.2 mm 1 mps 734 mmHg 81%
17:00 +13°C° 0.2 mm 1 mps 734 mmHg 86%
18:00 +12°C° 0.2 mm 1 mps 734 mmHg 91%
19:00 +12°C° 0.1 mm 1 mps 734 mmHg 92%
20:00 +12°C° 0.1 mm 2 mps 735 mmHg 93%
21:00 +12°C° 0.1 mm 2 mps 735 mmHg 94%
22:00 +12°C° 0 mm 2 mps 736 mmHg 95%
23:00 +12°C° 0 mm 2 mps 736 mmHg 95%

26 January, Tuesday

Time Temperature Precipitation Wind Pressure Humidity
00:00 +12°C° 0 mm 2 mps 736 mmHg 96%
01:00 +12°C° 0 mm 2 mps 736 mmHg 96%
02:00 +12°C° 0 mm 2 mps 736 mmHg 97%
03:00 +12°C° 0 mm 2 mps 736 mmHg 98%
04:00 +12°C° 0 mm 2 mps 736 mmHg 98%
05:00 +12°C° 0 mm 1 mps 736 mmHg 98%
06:00 +12°C° 0 mm 1 mps 737 mmHg 98%
07:00 +12°C° 0 mm 2 mps 737 mmHg 96%
08:00 +13°C° 0 mm 2 mps 738 mmHg 95%
09:00 +13°C° 0 mm 2 mps 738 mmHg 93%
10:00 +14°C° 0 mm 2 mps 738 mmHg 90%
11:00 +14°C° 0 mm 2 mps 738 mmHg 86%
12:00 +14°C° 0 mm 3 mps 739 mmHg 82%
13:00 +14°C° 0 mm 3 mps 738 mmHg 83%
14:00 +14°C° 0 mm 3 mps 738 mmHg 84%
15:00 +14°C° 0 mm 3 mps 738 mmHg 85%
16:00 +14°C° 0 mm 3 mps 738 mmHg 87%
17:00 +15°C° 0 mm 2 mps 738 mmHg 90%
18:00 +14°C° 0 mm 2 mps 738 mmHg 93%
19:00 +14°C° 0 mm 2 mps 738 mmHg 94%
20:00 +14°C° 0 mm 2 mps 739 mmHg 95%
21:00 +13°C° 0 mm 1 mps 739 mmHg 96%
22:00 +14°C° 0 mm 1 mps 739 mmHg 96%
23:00 +14°C° 0 mm 2 mps 739 mmHg 97%

27 January, Wednesday

Time Temperature Precipitation Wind Pressure Humidity
00:00 +14°C° 0 mm 2 mps 739 mmHg 97%
01:00 +14°C° 0 mm 1 mps 739 mmHg 97%
02:00 +14°C° 0 mm 1 mps 739 mmHg 97%
03:00 +13°C° 0 mm 1 mps 738 mmHg 98%
04:00 +13°C° 0 mm 1 mps 738 mmHg 98%
05:00 +13°C° 0 mm 1 mps 738 mmHg 98%
06:00 +13°C° 0 mm 1 mps 738 mmHg 98%
07:00 +13°C° 0 mm 1 mps 738 mmHg 97%
08:00 +13°C° 0 mm 1 mps 738 mmHg 96%
09:00 +14°C° 0 mm 1 mps 739 mmHg 95%
10:00 +14°C° 0 mm 1 mps 739 mmHg 91%
11:00 +15°C° 0 mm 2 mps 739 mmHg 88%
12:00 +16°C° 0 mm 2 mps 739 mmHg 85%
13:00 +16°C° 0 mm 2 mps 739 mmHg 84%
14:00 +16°C° 0 mm 2 mps 738 mmHg 83%
15:00 +16°C° 0 mm 2 mps 738 mmHg 82%
16:00 +16°C° 0 mm 2 mps 738 mmHg 84%
17:00 +15°C° 0 mm 1 mps 738 mmHg 86%
18:00 +15°C° 0 mm 1 mps 738 mmHg 89%
19:00 +15°C° 0 mm 1 mps 738 mmHg 89%
20:00 +15°C° 0 mm 1 mps 739 mmHg 90%
21:00 +14°C° 0 mm 1 mps 739 mmHg 90%
22:00 +14°C° 0 mm 1 mps 739 mmHg 92%
23:00 +13°C° 0 mm 1 mps 739 mmHg 94%
Show more